Regional Weather Roundup
Issued by NWS

Home | Current Version | Previous Version | Text Only | Print | Product List | Glossary Off
Versions: 1 2 3 4 5 6 7 8 9 10 11 12 13 14 15 16 17 18 19 20 21 22 23 24 25 26 27

000
ASUS45 KCYS 180810
RWRWY

WYOMING REGIONAL WEATHER ROUNDUP
NATIONAL WEATHER SERVICE CHEYENNE WY
100 AM MST WED JAN 18 2017

NOTE:  "FAIR" INDICATES FEW OR NO CLOUDS BELOW 12,000 FEET
WITH NO SIGNIFICANT WEATHER AND/OR OBSTRUCTIONS TO VISIBILITY.

WYZ001-180900-
YELLOWSTONE NATIONAL PARK

CITY           SKY/WX    TMP DP  RH WIND       PRES   REMARKS
LK YELLOWSTONE   N/A     -7  -9  91 CALM      30.11F
W YELLOWSTONE  NOT AVBL

$$
WYZ002>013-054>058-071-098>099-180900-
NORTHERN WYOMING

CITY           SKY/WX    TMP DP  RH WIND       PRES   REMARKS
JACKSON        FAIR      -6  -8  92 NE7       30.16S WCI -20
CODY           FAIR      16  11  80 VRB3      29.88F
GREYBULL       FAIR       2  -3  80 SE10      29.96F WCI -14
WORLAND        FAIR       2   0  91 E3        29.95S
SHERIDAN       FAIR      21  14  74 S6        29.84F WCI  13
BUFFALO        FAIR      30  17  58 CALM      29.88S
GILLETTE       FAIR      36  18  48 SW22      29.87F WCI  25
HULETT         FAIR      32  19  59 SW9       29.88S WCI  24
NEWCASTLE      FAIR      25  14  63 NE3       29.93F

$$
WYZ014>020-022>026-101>103-180900-
CENTRAL WYOMING

CITY           SKY/WX    TMP DP  RH WIND       PRES   REMARKS
BIG PINEY      FAIR     -10 -14  82 CALM      30.13F
PINEDALE       FAIR     -13 -17  84 CALM      30.13F
DUBOIS         NOT AVBL
LANDER         FAIR      10   6  84 CALM      30.02S
RIVERTON       FAIR       2  -1  88 CALM      30.03F
CASPER         FAIR      30   9  41 SW24G33   29.98F WCI  16
DOUGLAS        FAIR      22  12  65 NW6       29.95F WCI  14

$$
WYZ021-027>030-104>119-180900-
SOUTHERN WYOMING

CITY           SKY/WX    TMP DP  RH WIND       PRES   REMARKS
EVANSTON       FAIR      15   6  67 SW8       30.12F WCI   4
ROCK SPRINGS   FAIR      -3  -8  79 W6        30.13F WCI -15
RAWLINS        FAIR       5   0  79 CALM      30.11F
LARAMIE        FAIR       6   3  87 SE6       30.02F WCI  -4
CHEYENNE       FAIR      26  11  52 W13       29.97F WCI  15
TORRINGTON     FAIR      23  13  65 SE5       29.95R WCI  17

$$




USA.gov is the U.S. government's official web portal to all federal, state and local government web resources and services.